Das Wetter in  D-61279 Heinzenberg / Taunus





Wetter Minimum- & Maximum-Werte im Mai 2010

Standort: Heinzenberg / Taunus - Höhe 297 m         8 24' 1" Ost 50 21' 51" Nord
(   3-stündige Aktualisierung    letzte Aktualisierung um 19:04 am 31.05.2010  )


Messgrösse

Minimum

Maximum

Durchschnitt

Temperatur West /
Luftfeuchte West
Anklicken für Monats-Diagramm

1,1 C

07:01
05.05.2010

30 %

17:56
21.05.2010

26,3 C

17:02
23.05.2010

99 %

08:24
03.05.2010

Temp

10,5 C

Feuchte

81 %

Temperatur Ost /
Luftfeuchte Ost
Anklicken für Monats-Diagramm

1,2 C

06:26
05.05.2010

--

--
--

25,4 C

16:37
23.05.2010

--

--
--

10,3 C

--

Luftdruck Anklicken für Monats-Diagramm

1002,3 hPa

01:42
12.05.2010

1030,4 hPa

01:26
21.05.2010

1014,2 hPa

Taupunkt

-4,5 C

12:51
05.05.2010

16,7 C

18:06
22.05.2010

6,9 C

Windchill
( gefühlte Temperatur )

-8,6 C

07:56
05.05.2010

25,4 C

17:32
23.05.2010

8,9 C

Windgeschwindigkeit /
Windrichtung
Anklicken für Monats-Diagramm

---

52,1 km/h / W

18:03
30.05.2010

7,1 km/h
W-NW

Helligkeit /
Sonnenschein
Anklicken für Monats-Diagramm
Anklicken für Monats-Diagramm

Sonnenschein:

112:35 Stunden

Max: 13:01 Std am
24.05.2010

127 klux

12:28
30.05.2010

27 klux

Solarstrahlung Anklicken für Monats-Diagramm

---

869 W/m

12:28
30.05.2010

196 W/m

Regenmenge
    Mai 2010
Anklicken für Monats-Diagramm

Insgesamt 92,7 l/m

in 100:09 Stunden
an 23 Tagen

22,8 l/m

12:27
06.05.2010

Gesamtmenge

92,7 l/m

Regen-Tage
    Mai 2010
Anklicken für Monats-Diagramm

>   0 mm/Tag

>   2 mm/Tag

>   5 mm/Tag

> 10 mm/Tag

> 20 mm/Tag

23 Tage     
12 Tage     
5 Tage     
4 Tage     
  1 Tag     

Eisige Tage Mai 2010 / 2009

Tmin ≤ -10C     

0 Tage

/

0 Tage

Eistage Mai 2010 / 2009

Tmax <     0C     

0 Tage

/

0 Tage

Frosttage Mai 2010 / 2009

Tmin ≤     0C     

0 Tage

/

0 Tage

Kalte Tage Mai 2010 / 2009

Tmax <   10C     

5 Tage

/

0 Tage

Warme Tage Mai 2010 / 2009

Tmax ≥   20C     

6 Tage

/

17 Tage

Sommertage Mai 2010 / 2009

Tmax ≥   25C     

2 Tage

/

2 Tage

Heisse Tage Mai 2010 / 2009

Tmax ≥   30C     

0 Tage

/

0 Tage


Monatsdiagramm Mai 2010

Die Kurven zeigen den Durchschnittswert des jeweiligen Tages an


Wetter-Monatsübersicht Mai 2010
Datum
  Temperatur
   Luftdruck
   Wind
  Regen
   Luftfeuchte
   Helligkeit

Sonnen-
schein


Temp.

Min.
Temp.

Max.
Temp.


Luftdruck

Min.
Luftdruck

Max.
Luftdruck

-Geschw.
Haupt-Richtg.

Max.
Wind

Menge /
Dauer


Feuchte

Min.
Feuchte

Max.
Feuchte


Helligkeit

Max.
Helligkeit

1.
Mai
12,3 C9,6 C
06:47
16,8 C
16:17
1011,2 hPa1008,8 hPa
16:52
1012,7 hPa
02:12
6,1 km/h
W-SW
24,5 km/h
16:22  
0,5 l/m
2:15 Stunden
77 %56 %
16:52
94 %
06:27
23,9 klux78,7 klux
12:27
1:10 Std 
2.
Mai
11,0 C7,8 C
06:43
18,8 C
13:08
1009,9 hPa1007,2 hPa
17:43
1011,9 hPa
04:48
6,2 km/h
W-SW
37,0 km/h
14:28  
2,4 l/m
1:55 Stunden
81 %49 %
13:38
94 %
23:19
28,8 klux114,0 klux
12:38
3:05 Std 
3.
Mai
7,6 C3,3 C
06:34
12,1 C
18:24
1011,8 hPa1008,9 hPa
01:19
1016,4 hPa
23:50
4,7 km/h
NW
35,5 km/h
16:34  
3,0 l/m
3:30 Stunden
92 %70 %
18:29
99 %
08:24
23 klux80 klux
16:29
2:35 Std 
4.
Mai
7,2 C3,4 C
05:50
12,0 C
14:40
1018,6 hPa1016,5 hPa
00:00
1020,5 hPa
23:56
8,2 km/h
NO
30,7 km/h
18:50  
0,2 l/m
5 Minuten
81 %59 %
19:40
98 %
07:50
19,4 klux117,0 klux
14:25
1:10 Std 
5.
Mai
7,4 C1,1 C
07:01
13,6 C
14:06
1015,9 hPa1008,8 hPa
23:57
1021,8 hPa
02:31
15,4 km/h
NO
35,4 km/h
12:01  
---
15 Minuten
57 %32 %
14:01
83 %
07:01
38 klux105 klux
13:46
6:54 Std 
6.
Mai
5,7 C4,7 C
23:43
8,2 C
00:02
1004,4 hPa1002,8 hPa
15:12
1009,0 hPa
01:32
5,9 km/h
N-NW
21,3 km/h
06:07  
22,8 l/m
19:31 Stunden
93 %61 %
00:02
98 %
21:42
5 klux13 klux
14:52
--- 
7.
Mai
5,4 C3,9 C
04:23
8,9 C
17:43
1006,5 hPa1004,1 hPa
00:03
1010,2 hPa
23:49
6,0 km/h
W
19,5 km/h
14:43  
2,9 l/m
11:55 Stunden
94 %81 %
17:38
99 %
06:43
20,7 klux72,3 klux
15:58
55 Min 
8.
Mai
8,6 C2,3 C
06:44
16,8 C
17:59
1010,0 hPa1008,8 hPa
17:59
1011,3 hPa
09:04
3,5 km/h
W-NW
17,7 km/h
12:29  
---
79 %46 %
18:09
99 %
03:49
33,8 klux113,0 klux
13:34
5:41 Std 
9.
Mai
8,5 C3,5 C
04:15
15,2 C
18:05
1009,2 hPa1006,9 hPa
18:05
1011,5 hPa
04:15
1,2 km/h
SO
8,7 km/h
00:30  
2,4 l/m
2:20 Stunden
88 %68 %
18:10
95 %
06:10
18 klux126 klux
13:30
1:15 Std 
10.
Mai
9,6 C4,7 C
04:25
15,4 C
17:15
1007,7 hPa1006,9 hPa
17:15
1009,8 hPa
23:41
4,4 km/h
NO
16,4 km/h
17:10  
---
84 %65 %
17:20
98 %
08:25
20 klux101 klux
14:10
1:14 Std 
11.
Mai
11,4 C7,2 C
05:56
18,3 C
15:56
1006,1 hPa1002,6 hPa
17:06
1009,9 hPa
02:36
5,9 km/h
O
23,3 km/h
15:56  
0,8 l/m
1:45 Stunden
80 %61 %
15:56
94 %
23:22
28 klux119 klux
14:31
1:50 Std 
12.
Mai
7,5 C5,9 C
05:47
10,8 C
00:02
1008,6 hPa1002,3 hPa
01:42
1012,1 hPa
23:48
12,2 km/h
W
40,7 km/h
03:27  
0,3 l/m
45 Minuten
87 %77 %
16:57
96 %
02:02
11 klux34 klux
14:22
--- 
13.
Mai
6,9 C5,8 C
05:03
8,9 C
16:13
1012,2 hPa1011,1 hPa
01:48
1013,2 hPa
22:29
3,4 km/h
NW
14,3 km/h
17:23  
---
86 %74 %
16:23
94 %
04:48
10,0 klux44,5 klux
15:43
--- 
14.
Mai
7,3 C6,0 C
04:24
9,4 C
12:34
1012,0 hPa1010,7 hPa
12:34
1013,2 hPa
00:29
1,8 km/h
N-NW
13,1 km/h
10:49  
1,1 l/m
5:57 Stunden
90 %80 %
12:44
97 %
23:40
11,5 klux43,0 klux
12:19
--- 
15.
Mai
7,8 C5,4 C
06:15
10,9 C
14:40
1012,1 hPa1010,5 hPa
14:40
1013,2 hPa
02:55
5,5 km/h
NW
22,1 km/h
14:50  
2,9 l/m
5:20 Stunden
85 %60 %
19:00
99 %
03:55
16,6 klux110,0 klux
14:30
20 Min 
16.
Mai
10,5 C5,4 C
01:51
17,5 C
17:11
1015,0 hPa1013,1 hPa
06:21
1019,3 hPa
23:47
14,7 km/h
W-NW
33,4 km/h
14:20  
---
66 %33 %
17:01
91 %
06:21
42 klux116 klux
13:21
8:06 Std 
17.
Mai
8,8 C3,2 C
05:57
14,6 C
14:22
1021,5 hPa1019,3 hPa
00:02
1025,5 hPa
23:58
9,3 km/h
W
31,8 km/h
19:52  
2,1 l/m
3:07 Stunden
83 %65 %
14:32
95 %
23:13
29 klux103 klux
15:22
4:00 Std 
18.
Mai
8,4 C5,7 C
04:43
13,0 C
13:53
1026,6 hPa1025,5 hPa
00:03
1027,6 hPa
08:03
8,2 km/h
W-NW
28,4 km/h
17:58  
5,5 l/m
2:15 Stunden
86 %60 %
13:48
96 %
00:18
30 klux121 klux
13:43
3:30 Std 
19.
Mai
7,1 C4,9 C
03:09
9,1 C
20:24
1026,1 hPa1025,3 hPa
20:24
1027,6 hPa
13:49
7,2 km/h
W-NW
22,0 km/h
13:04  
10,2 l/m
10:10 Stunden
96 %91 %
07:49
98 %
03:29
9 klux27 klux
13:59
--- 
20.
Mai
10,0 C7,8 C
04:40
12,3 C
12:45
1028,2 hPa1026,3 hPa
00:00
1029,3 hPa
23:11
3,6 km/h
NW
20,1 km/h
12:45  
0,8 l/m
1:15 Stunden
84 %66 %
16:15
96 %
02:40
11,7 klux35,7 klux
13:25
--- 
21.
Mai
14,6 C8,0 C
05:11
24,6 C
17:56
1028,1 hPa1024,9 hPa
19:46
1030,4 hPa
01:26
3,7 km/h
SO
17,1 km/h
11:31  
---
67 %30 %
17:56
97 %
06:51
44,1 klux112,0 klux
12:56
8:31 Std 
22.
Mai
14,3 C5,9 C
05:51
23,3 C
15:56
1025,2 hPa1021,7 hPa
18:46
1028,5 hPa
01:46
3,9 km/h
NW
21,7 km/h
11:31  
1,8 l/m
45 Minuten
75 %48 %
13:06
94 %
07:36
43 klux116 klux
13:06
8:15 Std 
23.
Mai
17,0 C7,8 C
05:57
26,3 C
17:02
1021,5 hPa1018,1 hPa
17:27
1024,4 hPa
05:57
5,7 km/h
SO
23,6 km/h
15:52  
---
70 %33 %
16:02
98 %
08:17
53 klux103 klux
13:02
12:50 Std 
24.
Mai
18,3 C9,9 C
06:08
25,9 C
18:13
1013,7 hPa1008,9 hPa
18:38
1019,4 hPa
00:43
11,7 km/h
W-NW
39,6 km/h
12:48  
---
66 %31 %
17:53
94 %
07:53
51 klux102 klux
12:03
13:01 Std 
25.
Mai
16,7 C10,0 C
05:39
24,1 C
16:49
1010,9 hPa1009,0 hPa
16:49
1012,7 hPa
05:39
4,8 km/h
NW
23,9 km/h
14:09  
---
65 %42 %
16:54
93 %
07:19
47 klux109 klux
13:39
9:05 Std 
26.
Mai
13,2 C11,0 C
07:10
17,2 C
17:50
1007,9 hPa1004,6 hPa
17:50
1010,5 hPa
07:15
4,0 km/h
O-NO
24,8 km/h
22:46  
11,9 l/m
5:09 Stunden
80 %61 %
00:10
96 %
22:51
17 klux101 klux
16:55
2:30 Std 
27.
Mai
12,9 C9,3 C
04:46
19,6 C
17:41
1009,0 hPa1006,3 hPa
00:01
1010,5 hPa
11:31
8,8 km/h
W
22,6 km/h
00:21  
0,2 l/m
20 Minuten
84 %58 %
17:21
99 %
05:06
32 klux113 klux
13:21
4:35 Std 
28.
Mai
14,3 C9,8 C
23:57
18,8 C
18:16
1012,9 hPa1010,2 hPa
01:21
1019,0 hPa
23:57
8,1 km/h
NW
26,6 km/h
11:56  
0,9 l/m
2:10 Stunden
76 %40 %
18:51
95 %
09:01
29 klux105 klux
15:01
4:01 Std 
29.
Mai
14,0 C6,0 C
05:12
21,6 C
16:22
1017,5 hPa1013,3 hPa
23:33
1021,3 hPa
07:27
5,4 km/h
W-SW
28,5 km/h
16:17  
0,3 l/m
1:00 Stunden
68 %39 %
15:17
93 %
06:47
40 klux109 klux
14:12
5:56 Std 
30.
Mai
12,7 C7,6 C
23:59
17,0 C
14:08
1008,6 hPa1005,7 hPa
17:08
1013,4 hPa
00:33
17,1 km/h
W
52,1 km/h
18:03  
16,1 l/m
11:00 Stunden
87 %68 %
12:38
96 %
06:23
29 klux127 klux
12:28
2:06 Std 
31.
Mai
9,5 C6,4 C
04:29
12,2 C
14:09
1012,7 hPa1008,9 hPa
00:04
1016,7 hPa
23:40
14,3 km/h
W
32,2 km/h
12:34  
3,8 l/m
7:25 Stunden
94 %82 %
14:24
99 %
09:04
13 klux59 klux
11:59
--- 



Mai
2010

Temperatur

  

Luftdruck

  

Wind

  

Regen

  

Luftfeuchte

  

Helligkeit

Sonnen-
schein

Min

Max

Min

Max

Max

Max

Min

Max

Max

Max

10,5 C

1,1 C

07:01 Uhr
05.05.2010

26,3 C

17:02 Uhr
23.05.2010

1014,2 hPa

1002,3 hPa

01:42 Uhr
12.05.2010

1030,4 hPa

01:26 Uhr
21.05.2010

7,1 km/h

W-NW

52,1 km/h

18:03 Uhr
30.05.2010

22,8 l/m

19:31 Stunden
06.05.2010

81 %

30 %

17:56 Uhr
21.05.2010

99 %

08:24 Uhr
03.05.2010

26,8 klux

127,0 klux

12:28 Uhr
30.05.2010

13:01 Std

am
24.05.2010

Gesamt

Gesamt

92,7 l/m

23 Tage
100:09 h

112:35 Std


Wetter-Diagramme Mai 2010     Heinzenberg / Taunus   
TemperaturLuftfeuchte
SolarstrahlungLuftdruck
HelligkeitSonnenschein
RegenmengeRegendauer
Wind-GeschwindigkeitWind-Richtung